[[{"header":{"parameterUnit":"m.s-1","parameterCategory":1,"la1":30.2991,"la2":30.254,"lo1":-89.0895,"lo2":-89.0444,"dy":0.0017,"dx":0.0017,"nx":28,"ny":28,"refTime":"2025-02-05T09:00:00:Z","depth":0,"parameterNumber":2,"parameterNumberName":"U-component_of_WINDS"},"data":[0,0,0,0,0,0,0,0,0,0,0,0,0,0,0,0,0,0,0,0,0,0,0,0,0,0,0,0,0,0,0,0,0,0,0,0,0,0,0,0,0,0,0,0,0,0,0,0,0,0,0,0,0,0,0,0,0,0,0.1453,0.1454,0,0.1524,0.1525,0.1525,0.1548,0.1548,0.1547,0.1547,0.1619,0.1621,0.1623,0,0,0,0,0,0,0,0,0,0,0,0,0,0.1336,0.1338,0.1453,0.1454,0.1455,0.1524,0.1525,0.1526,0.1548,0.1548,0.1547,0.1547,0.1618,0.1621,0.1623,0,0,0,0,0,0,0,0,0,0,0,0,0,0.1395,0.1339,0.1453,0.1474,0.1477,0.1523,0.1525,0.1526,0.1548,0.1548,0.1547,0.1547,0.1617,0.162,0.1624,0.1654,0,0,0.1634,0.1635,0,0,0,0,0,0,0,0,0.1391,0.1399,0.147,0.1473,0.1476,0.1527,0.151,0.1569,0.1548,0.1521,0.1547,0.1546,0.1588,0.1594,0.1608,0.1657,0.166,0.1634,0.1636,0.1638,0.1639,0,0,0,0,0,0,0,0.1387,0.1396,0.1481,0.1471,0.1475,0.148,0.1488,0.1521,0.1557,0.1523,0.1525,0.1533,0.159,0.1605,0.161,0.1661,0.1634,0.1637,0.1639,0.164,0.1739,0.1739,0,0,0,0,0,0,0.138,0.1393,0.1479,0.1483,0.1432,0.1482,0.1491,0.1511,0.1556,0.1563,0.1534,0.1534,0.16,0.1606,0.1613,0.1651,0.1638,0.1641,0.1643,0.1738,0.1739,0.174,0,0,0,0,0,0,0.1377,0.1387,0.1476,0.1438,0.145,0.1485,0.1507,0.1512,0.1528,0.1564,0.157,0.1543,0.16,0.1608,0.1644,0.1654,0.1642,0.1645,0.1737,0.1738,0.1739,0.1728,0,0,0,0,0,0,0.1374,0.1386,0.1398,0.1438,0.1452,0.1505,0.1507,0.1514,0.1533,0.1535,0.1574,0.158,0.16,0.1639,0.1647,0.1659,0.1648,0.1737,0.1738,0.1739,0.1728,0.1729,0.173,0,0,0,0,0,0.1369,0.1392,0.1399,0.1409,0.1468,0.1506,0.1514,0.1536,0.1534,0.1546,0.157,0.1579,0.1652,0.1642,0.1652,0.1664,0.1736,0.1738,0.1739,0.1728,0.1729,0.173,0,0,0,0,0,0,0.1352,0.1398,0.1406,0.1442,0.147,0.151,0.1526,0.1536,0.1565,0.1565,0.1591,0.16,0.1633,0.1653,0.1641,0.1696,0.1694,0.1698,0.1682,0.1684,0.1684,0.1679,0.1651,0,0,0,0,0,0.1352,0.138,0.1418,0.1446,0.146,0.1491,0.1508,0.1523,0.1553,0.1565,0.1591,0.1619,0.1649,0.1667,0.1696,0.1731,0.174,0.1744,0.1745,0.1746,0.1748,0.1768,0.1771,0.1744,0.1744,0.1744,0,0,0.1353,0.1381,0.1397,0.1444,0.1467,0.1495,0.15,0.1529,0.155,0.1569,0.1604,0.1624,0.1658,0.1693,0.171,0.171,0.1758,0.1747,0.1748,0.175,0.177,0.1772,0.1774,0.1745,0.1745,0.1745,0,0,0.1369,0.1393,0.1419,0.1443,0.1479,0.1499,0.1505,0.1543,0.1558,0.1593,0.1608,0.1633,0.1683,0.1706,0.1725,0.175,0.1759,0.1758,0.1762,0.1781,0.1783,0.1785,0.1794,0.1797,0.1761,0.1761,0.1761,0,0.1365,0.1408,0.1431,0.146,0.148,0.1499,0.1525,0.1547,0.159,0.1603,0.1603,0.1666,0.169,0.1731,0.1737,0.1751,0.1759,0.1754,0.1781,0.1783,0.1786,0.1794,0.1797,0.176,0.176,0.176,0.176,0,0.1401,0.1431,0.1448,0.1489,0.1511,0.1539,0.1566,0.1586,0.1599,0.1619,0.1655,0.1684,0.1719,0.173,0.1743,0.1773,0.1772,0.1776,0.1775,0.1787,0.1796,0.1799,0.176,0.176,0.176,0.176,0,0,0.1408,0.1462,0.1468,0.1487,0.1528,0.1551,0.1579,0.1614,0.163,0.1659,0.1683,0.1725,0.1729,0.175,0.1766,0.1783,0.18,0.1785,0.1786,0.1786,0.1835,0.1832,0.1835,0.1807,0.1808,0.1808,0.1832,0,0.1428,0.148,0.1502,0.1544,0.1571,0.1589,0.1614,0.1641,0.1661,0.1687,0.1709,0.1738,0.1741,0.1754,0.1771,0.1794,0.181,0.1793,0.183,0.1831,0.182,0.184,0.1836,0.1857,0.1836,0.1836,0.1837,0,0.1459,0.1489,0.1533,0.1571,0.1583,0.1605,0.1639,0.1663,0.1695,0.1708,0.1732,0.1746,0.1777,0.1773,0.1815,0.1803,0.1819,0.1833,0.1834,0.1838,0.1834,0.1844,0.1865,0.1868,0.1842,0.1842,0.1842,0,0.1459,0.151,0.1543,0.1559,0.1604,0.1619,0.1638,0.1669,0.1689,0.1718,0.1731,0.1764,0.1781,0.1806,0.1829,0.1825,0.1869,0.1868,0.1881,0.188,0.1889,0.1888,0.1912,0.19,0.1899,0.1899,0.1899,0,0.148,0.1506,0.1544,0.1564,0.1594,0.1619,0.1648,0.1669,0.1696,0.1721,0.1739,0.1761,0.1791,0.1817,0.1835,0.1867,0.1875,0.1886,0.1891,0.1884,0.1883,0.1895,0.1894,0.19,0.19,0.19,0.19,0,0.1485,0.1511,0.1548,0.1588,0.1598,0.1619,0.1652,0.1673,0.1693,0.1724,0.1733,0.1765,0.1797,0.1822,0.1864,0.1876,0.1909,0.1915,0.1899,0.1901,0.1912,0.1911,0.1945,0.1951,0.1934,0.1934,0.1935,0,0.1496,0.1517,0.1559,0.1576,0.1596,0.1624,0.1644,0.167,0.169,0.1728,0.1744,0.1777,0.1805,0.1855,0.1882,0.1914,0.192,0.1929,0.1924,0.1918,0.192,0.1918,0.192,0.193,0.193,0.193,0.193,0,0.1513,0.1525,0.1554,0.1587,0.1611,0.1638,0.1666,0.1679,0.171,0.1732,0.1765,0.1787,0.1829,0.1862,0.1897,0.1916,0.1928,0.1931,0.1936,0.193,0.1919,0.1925,0.19,0.193,0.193,0.193,0.193,0.193,0.1522,0.1541,0.1573,0.1605,0.1628,0.1654,0.1675,0.1698,0.1726,0.1763,0.1777,0.1811,0.1842,0.189,0.191,0.1936,0.1938,0.1944,0.1946,0.1947,0.1946,0.1915,0.1943,0.1943,0.1943,0.1943,0.1943,0,0.154,0.1562,0.159,0.1629,0.1653,0.1663,0.1694,0.1714,0.1743,0.1772,0.1799,0.1837,0.1869,0.1898,0.1931,0.1947,0.1953,0.1955,0.1954,0.1958,0.1943,0.1936,0.1949,0.1949,0.1949,0.1949,0.1949,0.1949,0.1552,0.1585,0.1601,0.1646,0.1668,0.1701,0.1718,0.1742,0.1765,0.1806,0.1833,0.1852,0.1881,0.1917,0.1946,0.1954,0.1965,0.1965,0.1975,0.196,0.1959,0.1958,0.1951,0.1968,0.1968,0.1987,0.1987,0.1987]},{"header":{"parameterUnit":"m.s-1","parameterCategory":1,"la1":30.2991,"la2":30.254,"lo1":-89.0895,"lo2":-89.0444,"dy":0.0017,"dx":0.0017,"nx":28,"ny":28,"refTime":"2025-02-05T09:00:00:Z","depth":0,"parameterNumber":3,"parameterNumberName":"V-component_of_WINDS"},"data":[0,0,0,0,0,0,0,0,0,0,0,0,0,0,0,0,0,0,0,0,0,0,0,0,0,0,0,0,0,0,0,0,0,0,0,0,0,0,0,0,0,0,0,0,0,0,0,0,0,0,0,0,0,0,0,0,0,0,0.3504,0.3503,0,0.3393,0.3391,0.339,0.3338,0.3338,0.3338,0.3338,0.3219,0.3216,0.3213,0,0,0,0,0,0,0,0,0,0,0,0,0,0.3666,0.3664,0.3504,0.3503,0.3502,0.3393,0.3391,0.339,0.3338,0.3338,0.3338,0.3338,0.3221,0.3217,0.3213,0,0,0,0,0,0,0,0,0,0,0,0,0,0.3579,0.3663,0.3505,0.3463,0.3458,0.3393,0.3391,0.3389,0.3338,0.3338,0.3338,0.3338,0.3222,0.3217,0.3212,0.318,0,0,0.3197,0.3195,0,0,0,0,0,0,0,0,0.3584,0.3574,0.347,0.3465,0.346,0.338,0.3405,0.3319,0.3338,0.3383,0.3338,0.3338,0.3272,0.3263,0.3242,0.3174,0.3169,0.3197,0.3194,0.3192,0.3191,0,0,0,0,0,0,0,0.3591,0.3578,0.346,0.3469,0.3462,0.3447,0.3435,0.3388,0.3328,0.3379,0.3375,0.3363,0.3269,0.3247,0.3239,0.3167,0.3197,0.3193,0.319,0.3188,0.3064,0.3064,0,0,0,0,0,0,0.3604,0.3583,0.3464,0.3457,0.3524,0.3444,0.3431,0.3405,0.3329,0.3317,0.3363,0.3361,0.3255,0.3244,0.3234,0.319,0.3192,0.3187,0.3185,0.3065,0.3064,0.3064,0,0,0,0,0,0,0.3608,0.3594,0.3468,0.3519,0.3502,0.3442,0.3413,0.3403,0.338,0.3316,0.3305,0.3351,0.3255,0.3241,0.3193,0.3185,0.3185,0.3181,0.3065,0.3065,0.3064,0.3102,0,0,0,0,0,0,0.3613,0.3596,0.3584,0.3519,0.3499,0.3431,0.3413,0.3401,0.3372,0.3369,0.3302,0.3291,0.3254,0.3201,0.3189,0.3178,0.3177,0.3066,0.3065,0.3064,0.3101,0.3103,0.3104,0,0,0,0,0,0.3619,0.3599,0.3584,0.357,0.3484,0.3431,0.3419,0.3377,0.3372,0.3359,0.3318,0.3294,0.3188,0.3197,0.3182,0.317,0.3066,0.3065,0.3064,0.31,0.3102,0.3104,0,0,0,0,0,0,0.3663,0.3589,0.3572,0.3531,0.3488,0.3422,0.3404,0.3381,0.3337,0.3335,0.3284,0.3269,0.3226,0.3193,0.3204,0.3134,0.3125,0.3121,0.3157,0.3158,0.316,0.3168,0.3173,0,0,0,0,0,0.3668,0.3633,0.3569,0.3539,0.3518,0.3465,0.344,0.3412,0.3364,0.3345,0.3301,0.3254,0.321,0.3182,0.3138,0.3096,0.308,0.308,0.3082,0.3084,0.3081,0.3054,0.3053,0.3061,0.3061,0.3061,0,0,0.3678,0.3633,0.3614,0.3547,0.351,0.3472,0.345,0.3412,0.3383,0.3339,0.3292,0.3257,0.3201,0.3156,0.3133,0.3127,0.3075,0.3082,0.3084,0.308,0.3053,0.3053,0.3052,0.3061,0.3061,0.3061,0,0,0.3677,0.364,0.361,0.3574,0.3518,0.3483,0.3476,0.3413,0.3389,0.3341,0.3307,0.327,0.3197,0.3158,0.3129,0.3111,0.3087,0.3098,0.3106,0.308,0.308,0.3079,0.3072,0.307,0.3096,0.3096,0.3096,0,0.3695,0.364,0.3597,0.3561,0.3531,0.3491,0.3459,0.3425,0.3358,0.3337,0.3331,0.3237,0.3196,0.3141,0.3136,0.3114,0.3103,0.3106,0.3084,0.3082,0.3081,0.3073,0.3071,0.3097,0.3097,0.3097,0.3097,0,0.3665,0.3626,0.3608,0.3546,0.3514,0.348,0.343,0.3403,0.3377,0.3342,0.3292,0.3242,0.3187,0.3171,0.3145,0.3111,0.3109,0.3094,0.3084,0.3083,0.3075,0.3071,0.31,0.3099,0.3099,0.3098,0,0,0.3689,0.3603,0.3597,0.3568,0.3503,0.3472,0.3434,0.3382,0.3359,0.3313,0.328,0.3217,0.3203,0.317,0.3138,0.3116,0.3104,0.3104,0.3102,0.3105,0.3062,0.3073,0.3071,0.3088,0.3087,0.3086,0.3066,0,0.3679,0.3613,0.3573,0.3522,0.3485,0.3445,0.3412,0.3368,0.3334,0.3296,0.3256,0.3213,0.3198,0.3177,0.3154,0.3111,0.3095,0.3112,0.3054,0.3053,0.307,0.3067,0.3079,0.3062,0.3063,0.3062,0.3062,0,0.3658,0.3615,0.3561,0.35,0.3482,0.3454,0.3402,0.3366,0.3314,0.329,0.3253,0.3221,0.3178,0.3172,0.3111,0.3123,0.3097,0.3072,0.307,0.3063,0.3057,0.3059,0.3056,0.3054,0.3057,0.3057,0.3057,0,0.3681,0.3608,0.3567,0.3543,0.347,0.3451,0.3419,0.3368,0.3338,0.3291,0.3271,0.322,0.3191,0.3151,0.3106,0.3105,0.3049,0.3039,0.3026,0.3027,0.3016,0.3018,0.3009,0.3,0.3,0.3,0.3,0,0.3673,0.3641,0.3576,0.355,0.3513,0.3465,0.3429,0.3394,0.3348,0.3313,0.3275,0.3242,0.3185,0.3144,0.3108,0.3062,0.305,0.3028,0.3019,0.3031,0.3034,0.3013,0.3013,0.3,0.3,0.3,0.3,0,0.3692,0.3647,0.3599,0.3534,0.3516,0.3492,0.3435,0.3407,0.337,0.3327,0.3313,0.3255,0.3205,0.3156,0.3089,0.3065,0.3019,0.3007,0.3038,0.3032,0.3023,0.3024,0.3,0.2994,0.299,0.299,0.2991,0,0.369,0.3665,0.3598,0.3572,0.3542,0.3502,0.3471,0.3423,0.3393,0.3331,0.331,0.3258,0.3214,0.3137,0.3087,0.3035,0.3021,0.3016,0.3012,0.3025,0.3019,0.3022,0.3018,0.3017,0.3018,0.3018,0.3018,0,0.3691,0.367,0.3629,0.358,0.3545,0.3503,0.346,0.3441,0.3383,0.3351,0.3301,0.3267,0.3198,0.3146,0.3089,0.3054,0.3026,0.302,0.3014,0.3026,0.3045,0.3034,0.3041,0.302,0.302,0.302,0.302,0.302,0.3699,0.3675,0.3623,0.3578,0.3541,0.3501,0.3472,0.3431,0.3389,0.3331,0.3304,0.3253,0.3199,0.3119,0.3084,0.3042,0.3035,0.3027,0.3025,0.3023,0.3026,0.3052,0.3031,0.3031,0.3031,0.3031,0.3031,0,0.3698,0.3663,0.3622,0.3563,0.3527,0.3505,0.3456,0.3426,0.3383,0.3336,0.3293,0.3234,0.3184,0.313,0.3075,0.3052,0.3037,0.3039,0.304,0.3032,0.3036,0.3046,0.3051,0.3051,0.3051,0.3051,0.3051,0.3051,0.3693,0.365,0.3623,0.356,0.3524,0.3475,0.3448,0.341,0.3373,0.331,0.3268,0.3233,0.3182,0.3124,0.3075,0.3061,0.3042,0.3047,0.3029,0.3033,0.3032,0.3031,0.304,0.3044,0.3044,0.3028,0.3028,0.3028]}]]